Wind_Speed
30 29 29 30 30 30 30 30 31 31 33 34 35 35 36 38 40 41 41 42 43 42 41 39 34 31 30 32 34 34 33 34 31 26 27 31 32 30 28 29 29 28
28 28 28 28 29 29 29 29 29 29 30 31 33 34 34 35 37 38 39 40 41 42 42 43 42 39 35 34 35 36 38 38 32 26 29 33 32 31 30 31 30 28
27 27 27 27 28 28 29 29 29 28 28 28 30 31 32 33 34 36 37 37 38 39 39 40 41 42 41 40 38 37 38 36 32 35 38 35 33 31 31 31 30 30
26 26 27 28 28 29 29 29 29 29 29 28 29 30 30 31 32 33 34 34 35 36 37 38 38 39 40 42 41 40 42 42 42 45 43 39 38 36 32 32 33 33
26 27 27 28 29 30 30 30 30 30 30 29 29 29 29 30 31 31 32 32 33 34 35 36 37 37 37 39 40 41 45 48 49 47 43 40 41 40 37 35 35 36
27 27 27 28 28 29 30 30 31 31 31 30 30 30 30 30 30 31 31 31 32 32 33 34 34 35 36 37 38 39 41 43 44 43 41 40 41 41 41 39 37 38
28 28 28 28 28 28 28 28 29 30 30 30 31 31 31 31 31 31 32 31 31 31 32 32 32 33 34 35 37 38 39 38 37 37 37 37 38 38 38 37 36 36
29 30 30 29 28 27 27 27 27 27 28 29 29 29 30 31 32 32 32 32 32 32 31 31 31 32 33 34 35 36 38 36 32 33 36 36 36 35 35 34 33 34
31 31 32 31 30 28 28 27 26 26 27 27 27 27 28 29 31 32 33 33 33 33 32 31 31 32 32 33 33 34 37 36 33 35 38 37 35 34 34 32 31 32
33 34 34 34 32 31 30 29 28 28 28 28 27 27 26 27 28 29 31 33 34 34 33 32 31 31 31 32 32 33 35 36 37 38 38 37 36 35 33 32 31 32
35 36 37 37 35 34 33 32 31 31 31 31 30 29 29 28 27 28 28 30 32 33 33 33 32 32 32 32 32 32 34 35 37 38 36 36 35 34 34 33 33 34
37 39 41 40 38 37 36 35 35 34 34 34 34 33 32 31 30 29 29 29 30 31 32 32 32 33 33 33 32 32 33 34 36 37 37 35 34 34 35 36 36 35
37 40 42 43 41 40 40 39 38 37 37 37 36 36 35 34 33 32 31 30 30 30 30 31 32 32 32 33 33 33 33 33 35 36 37 35 33 33 34 36 37 38
39 40 42 42 42 43 43 42 42 41 40 39 39 39 38 36 35 34 33 32 31 30 29 29 30 31 32 32 33 33 33 33 33 35 37 37 35 33 32 33 35 37
43 43 42 41 41 42 43 44 44 44 43 42 41 41 40 38 36 35 34 33 32 31 29 29 28 29 30 32 33 34 33 33 33 34 35 37 37 36 34 33 35 37
45 44 43 42 41 42 42 43 44 45 44 44 43 42 41 40 37 35 34 33 32 31 29 28 27 28 29 31 33 34 34 33 33 32 32 34 36 37 36 35 37 40
46 45 43 42 42 42 42 42 43 43 44 43 43 43 42 41 38 35 34 34 33 31 29 28 26 26 28 30 32 33 33 33 33 33 33 34 34 35 35 37 38 40
47 46 45 44 43 43 42 42 42 42 42 42 42 42 42 41 39 36 35 35 34 32 30 29 27 26 27 29 31 32 32 33 33 33 35 35 34 33 35 37 37 37
49 48 47 46 45 44 43 42 42 41 41 41 40 41 41 41 40 38 37 37 37 36 34 32 30 28 27 27 27 29 30 29 29 31 32 34 35 35 35 35 35 36
55 53 51 49 47 46 45 44 43 42 41 40 40 40 41 42 42 41 39 38 39 39 38 35 33 30 28 27 26 26 28 28 28 30 32 33 35 37 37 36 35 36
63 61 58 55 53 51 49 47 46 44 43 41 40 40 40 41 41 42 41 40 40 41 41 39 37 33 30 28 27 26 28 30 31 32 34 35 36 38 39 39 38 37
69 68 66 63 60 58 55 53 51 49 46 44 41 40 40 40 40 40 41 39 38 40 41 41 40 38 33 30 29 29 29 32 34 36 36 37 38 39 39 40 40 39
72 72 71 70 67 65 62 60 58 55 52 49 46 43 41 40 39 39 39 38 37 37 39 40 40 40 37 32 31 32 33 35 37 39 39 37 38 39 38 38 39 38
69 72 73 73 72 70 69 67 65 62 59 57 54 49 45 42 41 39 39 38 37 37 38 38 39 39 37 34 32 33 36 39 39 40 40 38 37 39 39 39 40 39
60 64 68 71 72 72 72 70 69 67 66 64 61 57 53 49 45 43 40 38 37 38 38 38 39 39 37 35 33 34 37 41 42 42 41 38 37 39 41 41 42 41
51 53 57 61 65 67 69 69 69 69 67 66 65 63 60 57 54 50 46 42 39 38 39 39 39 39 38 37 36 35 37 41 44 44 43 40 38 39 41 41 41 41
Wind_Direction
247 248 249 252 254 255 255 255 256 256 256 256 256 255 254 254 254 254 255 256 258 260 262 262 259 253 256 261 264 269 275 270 262 269 287 294 292 286 280 283 283 277
246 247 248 249 251 254 255 255 256 256 256 256 256 256 255 254 254 254 254 254 254 255 256 259 260 258 257 257 260 266 267 258 253 267 287 290 286 283 284 289 290 290
247 249 251 252 251 252 253 254 255 256 256 257 256 256 255 254 254 253 253 253 253 253 253 254 255 256 257 257 258 260 258 255 260 274 282 280 275 277 282 285 284 287
251 253 255 256 256 256 255 254 255 256 256 257 258 258 258 257 256 254 253 253 252 253 253 252 252 252 253 253 254 253 253 256 264 271 274 272 269 272 275 275 277 280
258 261 262 262 261 261 260 258 257 257 257 258 258 258 258 258 259 258 257 255 253 253 252 253 253 252 252 251 250 249 249 253 259 263 264 263 263 266 267 266 267 271
262 268 269 268 265 264 263 262 261 260 259 259 259 259 259 259 259 259 258 258 256 255 254 253 253 253 254 253 252 250 250 252 254 256 257 257 257 259 261 261 261 263
267 273 272 269 266 265 263 263 263 262 261 261 262 262 262 261 260 260 259 258 258 257 256 255 254 254 254 254 254 253 252 252 253 254 254 254 255 255 256 257 257 259
270 275 272 267 266 265 263 262 262 263 263 263 263 265 265 264 263 262 261 260 259 258 257 256 255 254 253 253 254 254 253 252 251 252 252 251 252 253 253 252 252 256
272 273 270 266 266 265 265 263 262 262 263 262 263 264 266 267 266 265 264 262 261 260 259 258 257 255 254 254 254 253 253 250 243 246 251 252 251 252 252 252 254 257
270 271 268 265 265 266 266 267 266 266 266 265 265 264 264 266 268 268 267 265 263 262 261 261 260 259 256 254 253 252 252 248 244 247 251 252 251 252 252 252 255 258
268 270 267 264 264 265 266 268 269 270 270 270 269 268 266 266 267 269 270 268 266 264 262 261 260 260 259 256 254 252 250 249 247 247 250 251 252 253 252 252 253 255
263 267 266 264 264 265 265 267 269 271 273 273 273 272 271 271 271 270 271 271 270 267 264 262 260 259 259 258 256 253 251 249 247 245 245 249 252 252 252 251 251 253
258 260 260 260 262 264 264 265 266 268 271 273 274 274 275 276 276 275 274 273 273 270 266 263 261 259 259 258 257 255 253 250 247 244 243 246 250 251 250 250 250 252
258 257 255 255 257 260 262 264 265 266 267 269 272 274 276 278 279 279 279 278 276 274 270 266 262 260 259 257 255 254 253 251 248 245 244 244 248 250 251 253 254 255
257 255 254 253 254 255 257 260 262 264 265 266 268 271 274 276 277 279 280 280 278 276 273 269 264 259 257 256 254 251 250 248 247 247 247 246 248 251 254 255 257 258
254 253 253 253 254 254 254 255 257 260 262 264 266 268 270 272 273 275 277 278 278 277 274 271 266 261 257 254 252 250 247 246 245 245 247 249 249 251 254 255 256 258
251 251 251 252 253 253 253 254 254 255 257 260 263 265 266 267 269 270 272 274 276 275 273 271 269 265 260 254 251 249 246 243 243 241 243 247 249 249 252 255 256 257
251 250 250 251 252 252 252 252 253 254 254 255 257 259 261 262 263 265 267 270 271 271 270 270 269 269 266 260 255 251 246 241 240 240 241 245 249 250 252 255 257 258
255 253 252 251 251 251 251 251 251 252 253 252 252 253 255 257 258 259 262 265 267 268 269 270 270 271 271 268 260 255 250 244 241 242 242 243 245 248 253 257 258 256
261 258 256 254 253 252 252 252 251 251 251 251 251 250 251 253 254 255 257 259 262 264 267 269 271 270 271 270 263 256 251 248 245 246 246 246 246 247 251 257 256 250
266 264 262 259 257 256 255 254 253 252 251 251 251 251 250 251 251 252 253 255 258 260 263 267 270 270 268 267 263 255 249 246 245 244 244 248 251 251 250 249 249 246
270 269 267 265 262 260 258 257 256 255 254 253 251 251 250 250 250 251 251 252 255 257 258 262 266 269 268 264 259 254 247 244 244 244 244 247 251 253 250 243 239 239
272 271 270 268 267 264 262 261 259 258 257 256 254 252 251 250 250 250 250 250 252 255 256 257 260 264 266 262 256 250 245 244 244 246 249 251 249 248 248 243 237 235
273 272 271 270 269 268 266 265 263 261 260 259 257 254 253 252 251 251 250 250 251 252 254 256 256 259 262 261 256 250 245 244 245 246 249 253 250 246 244 242 238 235
271 271 270 269 268 268 268 267 266 265 264 262 260 257 255 254 254 253 252 251 251 252 253 255 256 257 259 260 258 253 248 246 246 247 249 251 251 248 243 238 235 233
271 269 268 267 267 266 266 266 266 266 265 264 262 259 257 256 256 255 253 253 254 253 254 256 258 257 258 260 259 256 252 249 249 251 252 252 251 248 243 237 231 230
Height
3036 3037 3038 3039 3040 3041 3042 3043 3044 3045 3047 3048 3049 3051 3053 3054 3055 3056 3058 3059 3060 3062 3063 3064 3065 3066 3068 3070 3070 3070 3071 3071 3070 3070 3071 3071 3073 3074 3075 3075 3076 3077
3033 3034 3035 3036 3037 3037 3038 3039 3040 3041 3042 3043 3044 3046 3048 3049 3050 3051 3053 3054 3055 3057 3058 3059 3061 3062 3063 3065 3067 3068 3068 3066 3065 3066 3068 3069 3070 3071 3071 3072 3073 3073
3029 3030 3031 3032 3033 3034 3035 3035 3036 3037 3039 3040 3040 3041 3043 3044 3045 3046 3048 3049 3050 3052 3053 3054 3055 3057 3059 3060 3062 3064 3064 3061 3060 3062 3064 3066 3068 3068 3068 3069 3069 3071
3025 3027 3027 3028 3029 3030 3031 3032 3033 3034 3035 3036 3037 3037 3039 3040 3040 3041 3043 3044 3045 3047 3048 3049 3050 3052 3053 3055 3056 3059 3060 3058 3058 3059 3060 3062 3064 3064 3065 3065 3065 3067
3022 3023 3023 3024 3025 3026 3027 3028 3029 3030 3031 3032 3033 3034 3035 3036 3036 3037 3038 3039 3041 3042 3043 3044 3045 3046 3048 3049 3051 3052 3053 3054 3054 3056 3057 3058 3059 3060 3061 3062 3062 3063
3018 3019 3020 3021 3022 3022 3023 3024 3025 3026 3027 3028 3029 3030 3030 3031 3032 3033 3034 3035 3036 3037 3038 3040 3041 3042 3043 3044 3045 3046 3047 3049 3050 3051 3052 3053 3054 3055 3056 3058 3058 3058
3014 3015 3016 3017 3018 3019 3019 3020 3021 3022 3022 3024 3025 3025 3026 3027 3028 3029 3029 3031 3032 3033 3034 3035 3036 3037 3038 3039 3041 3042 3042 3044 3045 3046 3047 3048 3049 3050 3051 3053 3053 3054
3010 3011 3012 3013 3014 3015 3016 3016 3017 3018 3019 3019 3020 3021 3022 3023 3024 3025 3025 3026 3027 3028 3029 3031 3032 3032 3033 3034 3036 3037 3038 3039 3040 3041 3042 3043 3044 3045 3046 3048 3049 3050
3006 3007 3008 3009 3010 3011 3012 3013 3014 3014 3015 3016 3016 3017 3018 3019 3019 3020 3021 3022 3023 3023 3024 3026 3027 3028 3029 3030 3031 3032 3033 3034 3036 3036 3037 3038 3039 3040 3042 3043 3045 3046
3001 3002 3004 3005 3006 3007 3008 3009 3010 3010 3011 3012 3013 3014 3014 3015 3015 3016 3017 3018 3018 3019 3020 3021 3022 3023 3024 3025 3026 3027 3028 3029 3031 3032 3032 3034 3035 3036 3037 3039 3040 3042
2996 2997 2999 3000 3002 3003 3004 3004 3005 3006 3007 3007 3008 3009 3010 3011 3012 3012 3013 3013 3014 3015 3016 3016 3017 3018 3019 3020 3022 3023 3023 3025 3026 3027 3028 3029 3030 3031 3033 3034 3036 3037
2992 2993 2994 2995 2997 2998 2999 3000 3001 3002 3002 3003 3004 3005 3006 3007 3008 3008 3009 3010 3010 3010 3011 3012 3012 3013 3015 3016 3017 3018 3019 3020 3021 3023 3024 3025 3026 3027 3029 3030 3031 3032
2988 2989 2991 2992 2992 2993 2994 2996 2997 2998 2998 2999 2999 3000 3001 3002 3003 3004 3005 3005 3006 3006 3007 3007 3008 3009 3010 3011 3012 3013 3014 3015 3016 3018 3019 3021 3022 3023 3024 3025 3026 3027
2982 2984 2986 2987 2988 2989 2990 2991 2992 2993 2994 2995 2995 2996 2996 2997 2998 2999 3000 3001 3001 3002 3002 3003 3004 3004 3005 3006 3007 3008 3009 3010 3012 3013 3015 3016 3017 3018 3020 3020 3021 3022
2976 2978 2980 2982 2983 2984 2985 2986 2987 2988 2989 2990 2991 2992 2992 2993 2994 2995 2996 2996 2997 2997 2998 2998 2999 3000 3000 3001 3002 3003 3004 3005 3007 3008 3010 3011 3012 3014 3015 3016 3017 3018
2971 2973 2974 2976 2977 2978 2980 2981 2982 2983 2984 2985 2986 2987 2988 2989 2990 2991 2991 2992 2992 2993 2993 2994 2995 2995 2996 2997 2998 2998 3000 3001 3002 3004 3005 3007 3008 3009 3010 3012 3013 3013
2966 2967 2969 2970 2971 2972 2974 2975 2977 2978 2979 2980 2981 2982 2983 2984 2986 2987 2987 2988 2988 2989 2989 2989 2990 2991 2991 2992 2993 2994 2995 2996 2997 2999 3001 3002 3003 3004 3006 3007 3008 3008
2960 2962 2963 2965 2966 2967 2968 2970 2971 2972 2974 2975 2977 2978 2979 2980 2981 2982 2983 2983 2984 2985 2985 2985 2986 2986 2987 2988 2989 2990 2991 2992 2993 2995 2996 2997 2999 3000 3001 3003 3003 3003
2955 2956 2958 2959 2960 2961 2963 2964 2965 2966 2968 2970 2971 2973 2974 2975 2976 2977 2978 2979 2979 2980 2981 2981 2982 2983 2983 2984 2984 2986 2987 2988 2989 2990 2992 2993 2995 2996 2997 2998 2998 2999
2949 2951 2952 2954 2955 2956 2957 2958 2960 2961 2962 2964 2965 2967 2968 2969 2970 2972 2973 2974 2975 2976 2976 2977 2978 2978 2979 2980 2981 2982 2983 2985 2986 2987 2988 2989 2990 2991 2992 2993 2994 2995
2941 2943 2945 2948 2949 2951 2952 2953 2954 2955 2957 2958 2959 2961 2962 2964 2965 2966 2967 2969 2970 2971 2972 2972 2973 2974 2975 2976 2977 2978 2980 2981 2982 2983 2984 2985 2986 2986 2988 2988 2989 2990
2932 2934 2937 2939 2942 2944 2946 2947 2948 2950 2951 2952 2953 2955 2956 2958 2959 2960 2962 2963 2965 2966 2967 2968 2968 2969 2970 2972 2973 2974 2975 2977 2978 2979 2979 2980 2981 2982 2983 2983 2983 2984
2923 2925 2927 2930 2932 2935 2938 2940 2942 2943 2945 2946 2947 2949 2951 2952 2953 2954 2956 2957 2959 2960 2962 2963 2964 2965 2966 2967 2968 2969 2970 2972 2973 2974 2974 2975 2976 2977 2978 2978 2979 2979
2914 2915 2917 2920 2923 2925 2928 2931 2933 2936 2938 2939 2941 2943 2945 2946 2948 2949 2950 2952 2953 2955 2956 2957 2958 2960 2961 2962 2962 2964 2965 2966 2967 2969 2969 2970 2971 2972 2973 2973 2974 2975
2905 2906 2908 2910 2913 2915 2918 2920 2923 2926 2928 2931 2933 2936 2938 2940 2941 2942 2944 2946 2947 2949 2951 2952 2953 2954 2955 2956 2957 2958 2960 2961 2962 2963 2964 2965 2966 2967 2968 2968 2969 2970
2897 2898 2899 2900 2902 2905 2908 2911 2914 2916 2918 2921 2924 2927 2930 2932 2934 2936 2938 2939 2941 2943 2945 2946 2947 2949 2950 2951 2952 2953 2955 2956 2957 2958 2959 2960 2961 2962 2963 2963 2964 2965